Orbital Elements at Epoch 2454038.5 (2006-Oct-30.0) TDB
Reference: JPL 29 (heliocentric ecliptic J2000)
Element | Value | Uncertainty (1-sigma) | Units |
e | .6122488927561334 | 5.9341e-07 | |
a | 6.458840441179708 | 4.8195e-07 | au |
q | 2.504422532578896 | 3.6583e-06 | au |
i | 19.36593280127702 | 2.9447e-05 | deg |
node | 55.2685131955288 | 5.8853e-05 | deg |
peri | 356.8300238270115 | 0.00021394 | deg |
M | 104.4552815317509 | 5.1954e-05 | deg |
tp | 2452298.864891249360 (2002-Jan-24.36489125) | 0.00086159 | TDB |
period | 5995.567002132541 16.41 | 0.00067107 1.837e-06 | d yr |
n | .06004436275534122 | 6.7207e-09 | deg/d |
Q | 10.41325834978052 | 7.7703e-07 | au |
|
| | Orbit Determination Parameters
Additional Information
|